Location: Wildlife_Club
(35.6000°N, 81.4330°W)
Time: 10:55:45
(UTC-04:00)

Vanguard 2 Rocket - Pass Details

Date: 20 June 2019
Orbit: 553 x 3327 km, 32.9° (Epoch: 20 August)

Event Time Altitude Azimuth Distance (km) Brightness Sun altitude
Rises 03:57:29 0° 280° (W) 5,722 10.7 -21.1°
Reaches altitude 10° 04:00:45 10° 278° (W) 5,019 10.4 -20.7°
Maximum altitude 04:16:32 65° 201° (SSW) 3,345 9.4 -18.7°
Drops below altitude 10° 04:36:37 10° 125° (SE) 6,176 11.2 -15.9°
Sets 04:41:11 0° 123° (ESE) 7,045 11.6 -15.2°
